Weather History for Arlington, WA

Change the Weather History Date:

Sunday, November 11, 2012

  Actual Average Record
Temperature  
Mean Temperature 35 °F -  
Max Temperature 44 °F 51 °F 60 °F (1999)
Min Temperature 26 °F 40 °F 21 °F (2000)
Degree Days  
Heating Degree Days 30    
Moisture  
Dew Point 33 °F    
Average Humidity 85    
Maximum Humidity 93    
Minimum Humidity 75    
Precipitation  
Precipitation 0.07 in - - ()
Sea Level Pressure  
Sea Level Pressure 30.19 in    
Wind  
Wind Speed 2 mph (East)    
Max Wind Speed 12 mph    
Max Gust Speed 16 mph    
Visibility 10 miles    
Events      
Averages and records for this station are not official NWS values.
T = Trace of Precipitation, MM = Missing Value Source: NWS Daily Summary

Daily Weather History Graph

Daily Weather History Graph

Search for Another Location

Airport:

Trip Planner

Search our weather history database for the weather conditions in past years. The results will help you decide how hot, cold, wet, or windy it might be!

Date:

Astronomy

Nov. 11, 2012 Rise Set
Actual Time 7:10 AM PST 4:34 PM PST
Civil Twilight 6:36 AM PST 5:08 PM PST
Nautical Twilight 5:59 AM PST 5:45 PM PST
Astronomical Twilight 5:22 AM PST 6:22 PM PST
Moon 4:21 AM PST (11/11) 3:08 PM PST (11/11)
Length of Visible Light 10h 31m
Length of Day
9h 24m
Waning Crescent, 6% of the Moon is Illuminated
Nov 11
Waning Crescent
Nov 13
New
Nov 20
First Quarter
Nov 28
Full
Dec 6
Last Quarter

Hourly Weather History & Observations

Time (PST) Temp. Windchill Dew Point Humidity Pressure Visibility Wind Dir Wind Speed Gust Speed Precip Events Conditions
12:15 AM 26.6 °F - 24.8 °F 93% 30.25 in 9.0 mi Calm Calm - N/A   Clear
12:35 AM 26.6 °F - 24.8 °F 93% 30.25 in 10.0 mi Calm Calm - N/A   Clear
12:55 AM 28.4 °F - 24.8 °F 86% 30.25 in 10.0 mi Calm Calm - N/A   Clear
1:15 AM 26.6 °F - 24.8 °F 93% 30.26 in 10.0 mi Calm Calm - N/A   Clear
1:35 AM 26.6 °F - 24.8 °F 93% 30.26 in 10.0 mi Calm Calm - N/A   Clear
1:55 AM 26.6 °F - 23.0 °F 86% 30.27 in 10.0 mi Calm Calm - N/A   Clear
2:15 AM 26.6 °F - 24.8 °F 93% 30.26 in 10.0 mi Calm Calm - N/A   Clear
2:35 AM 26.6 °F - 24.8 °F 93% 30.26 in 10.0 mi Calm Calm - N/A   Clear
2:55 AM 28.4 °F - 24.8 °F 86% 30.26 in 10.0 mi Calm Calm - N/A   Clear
3:35 AM 28.4 °F - 24.8 °F 86% 30.25 in 10.0 mi Calm Calm - N/A   Clear
3:55 AM 28.4 °F - 24.8 °F 86% 30.25 in 10.0 mi Calm Calm - N/A   Clear
4:15 AM 28.4 °F - 24.8 °F 86% 30.25 in 10.0 mi Calm Calm - N/A   Clear
4:35 AM 28.4 °F - 24.8 °F 86% 30.24 in 10.0 mi Calm Calm - N/A   Clear
4:55 AM 28.4 °F - 24.8 °F 86% 30.24 in 10.0 mi Calm Calm - N/A   Clear
5:35 AM 28.4 °F 24.6 °F 26.6 °F 93% 30.24 in 10.0 mi ENE 3.5 mph - N/A   Mostly Cloudy
5:55 AM 28.4 °F - 24.8 °F 86% 30.24 in 10.0 mi Calm Calm - N/A   Mostly Cloudy
6:15 AM 30.2 °F 25.4 °F 26.6 °F 86% 30.24 in 10.0 mi North 4.6 mph - N/A   Mostly Cloudy
6:35 AM 30.2 °F - 26.6 °F 86% 30.24 in 10.0 mi Calm Calm - N/A   Mostly Cloudy
7:15 AM 30.2 °F - 28.4 °F 93% 30.24 in 9.0 mi Calm Calm - N/A   Overcast
7:35 AM 30.2 °F - 26.6 °F 86% 30.24 in 10.0 mi Calm Calm - N/A   Overcast
7:55 AM 30.2 °F - 26.6 °F 86% 30.25 in 10.0 mi Calm Calm - N/A   Overcast
8:15 AM 30.2 °F - 28.4 °F 93% 30.25 in 10.0 mi Calm Calm - N/A   Overcast
8:35 AM 32.0 °F - 28.4 °F 87% 30.24 in 10.0 mi Calm Calm - N/A   Overcast
8:55 AM 33.8 °F - 28.4 °F 81% 30.24 in 10.0 mi Calm Calm - N/A   Overcast
9:15 AM 33.8 °F - 28.4 °F 81% 30.24 in 10.0 mi Calm Calm - N/A   Overcast
9:35 AM 33.8 °F - 30.2 °F 87% 30.24 in 10.0 mi Calm Calm - N/A   Overcast
9:55 AM 35.6 °F - 30.2 °F 81% 30.25 in 10.0 mi Calm Calm - N/A   Overcast
10:15 AM 35.6 °F - 30.2 °F 81% 30.25 in 10.0 mi Calm Calm - N/A   Overcast
10:35 AM 37.4 °F - 30.2 °F 75% 30.25 in 10.0 mi Calm Calm - N/A   Overcast
10:55 AM 37.4 °F - 32.0 °F 81% 30.25 in 10.0 mi Calm Calm - N/A   Overcast
11:15 AM 37.4 °F - 32.0 °F 81% 30.24 in 10.0 mi Calm Calm - N/A   Overcast
11:35 AM 39.2 °F 35.9 °F 33.8 °F 81% 30.24 in 10.0 mi NNE 4.6 mph - N/A   Overcast
11:55 AM 39.2 °F - 35.6 °F 87% 30.23 in 10.0 mi Calm Calm - N/A   Overcast
12:15 PM 42.8 °F 41.1 °F 37.4 °F 81% 30.23 in 10.0 mi East 3.5 mph - N/A   Overcast
12:35 PM 41.0 °F 39.0 °F 37.4 °F 87% 30.23 in 10.0 mi ENE 3.5 mph - N/A   Overcast
12:55 PM 41.0 °F 39.0 °F 35.6 °F 81% 30.22 in 10.0 mi East 3.5 mph - N/A   Overcast
1:15 PM 41.0 °F 38.0 °F 37.4 °F 87% 30.21 in 10.0 mi NE 4.6 mph - N/A   Overcast
1:35 PM 42.8 °F 38.0 °F 37.4 °F 81% 30.20 in 10.0 mi East 8.1 mph - N/A   Overcast
1:55 PM 44.6 °F 41.4 °F 37.4 °F 76% 30.19 in 10.0 mi East 5.8 mph - N/A   Overcast
2:15 PM 42.8 °F 38.6 °F 39.2 °F 87% 30.18 in 10.0 mi East 6.9 mph - N/A   Overcast
2:35 PM 44.6 °F 40.7 °F 37.4 °F 76% 30.18 in 10.0 mi East 6.9 mph - N/A   Overcast
2:55 PM 42.8 °F - 37.4 °F 81% 30.18 in 10.0 mi Calm Calm - N/A   Overcast
3:15 PM 41.0 °F - 37.4 °F 87% 30.18 in 10.0 mi Calm Calm - N/A   Overcast
3:35 PM 44.6 °F 43.1 °F 37.4 °F 76% 30.17 in 10.0 mi East 3.5 mph - N/A   Overcast
3:55 PM 44.6 °F 39.7 °F 37.4 °F 76% 30.17 in 10.0 mi ESE 9.2 mph - N/A   Overcast
4:15 PM 44.6 °F 40.2 °F 37.4 °F 76% 30.16 in 10.0 mi ESE 8.1 mph - N/A   Overcast
4:35 PM 44.6 °F 39.2 °F 39.2 °F 81% 30.16 in 10.0 mi East 10.4 mph - N/A   Overcast
4:55 PM 42.8 °F - 39.2 °F 87% 30.16 in 10.0 mi Calm Calm - N/A   Overcast
5:15 PM 44.6 °F 39.7 °F 39.2 °F 81% 30.15 in 10.0 mi ESE 9.2 mph - 0.01 in   Overcast
5:35 PM 44.6 °F 39.2 °F 39.2 °F 81% 30.15 in 10.0 mi ESE 10.4 mph - 0.01 in   Overcast
5:55 PM 44.6 °F 39.2 °F 39.2 °F 81% 30.14 in 10.0 mi ESE 10.4 mph 16.1 mph 0.02 in   Overcast
6:15 PM 44.6 °F 38.8 °F 39.2 °F 81% 30.13 in 10.0 mi East 11.5 mph - 0.02 in   Overcast
6:35 PM 44.6 °F 39.2 °F 39.2 °F 81% 30.12 in 10.0 mi East 10.4 mph - 0.02 in   Overcast
6:55 PM 42.8 °F 38.6 °F 39.2 °F 87% 30.11 in 8.0 mi East 6.9 mph - 0.02 in   Overcast
7:15 PM 42.8 °F - 39.2 °F 87% 30.10 in 9.0 mi Calm Calm - 0.01 in   Overcast
7:35 PM 41.0 °F 36.4 °F 37.4 °F 87% 30.10 in 10.0 mi North 6.9 mph - 0.01 in   Overcast
7:55 PM 41.0 °F - 37.4 °F 87% 30.10 in 10.0 mi Calm Calm - 0.02 in   Overcast
8:15 PM 41.0 °F - 37.4 °F 87% 30.11 in 9.0 mi Calm Calm - N/A   Overcast
8:35 PM 42.8 °F 41.1 °F 39.2 °F 87% 30.11 in 10.0 mi South 3.5 mph - N/A   Overcast
8:55 PM 42.8 °F - 39.2 °F 87% 30.12 in 10.0 mi Calm Calm - N/A   Overcast
9:15 PM 42.8 °F - 39.2 °F 87% 30.12 in 10.0 mi Calm Calm - N/A   Overcast
9:35 PM 41.0 °F - 37.4 °F 87% 30.12 in 10.0 mi Calm Calm - N/A   Overcast
9:55 PM 41.0 °F - 39.2 °F 93% 30.11 in 8.0 mi Calm Calm - N/A   Overcast
10:15 PM 42.8 °F - 39.2 °F 87% 30.11 in 9.0 mi Calm Calm - N/A   Overcast
10:35 PM 42.8 °F - 41.0 °F 93% 30.11 in 10.0 mi Calm Calm - N/A   Overcast
10:55 PM 42.8 °F - 41.0 °F 93% 30.11 in 10.0 mi Calm Calm - N/A   Overcast
11:15 PM 42.8 °F 39.3 °F 39.2 °F 87% 30.10 in 10.0 mi South 5.8 mph - N/A   Overcast
11:35 PM 42.8 °F 39.3 °F 39.2 °F 87% 30.10 in 10.0 mi South 5.8 mph - N/A   Overcast
11:55 PM 42.8 °F 38.6 °F 41.0 °F 93% 30.10 in 10.0 mi South 6.9 mph - 0.01 in   Overcast